contact:dominique.lefevre@mio.osupytheas.fr, maurice.libes@osupytheas.fr, didier.mallarino@osupytheas.fr
Project:EMSO http://www.emso-fr.org/EMSO-France
Depth: 2436.0 m
Title:EMSO Ligure Ouest : Data MII capteur CSTAR
DateTime,Latitude,Longitude,Instrument_Serial,Reference_Counts,Signal_Counts,Corrected_Signal_raw_counts,Calculated_Beam_c_inverse_meters,Internal_thermistor_counts
DateTime,Latitude,Longitude,Instrument_Serial,Reference_Counts,Signal_Counts,Corrected_Signal_raw_counts,Calculated_Beam_c_inverse_meters,Internal_thermistor_counts
2023-05-26T00:01:35,42.805,6.029,CST-1368DR,4287,4658,11533,01.212,552
2023-05-26T00:04:37,42.805,6.029,CST-1368DR,4287,4663,11545,01.208,552
2023-05-26T00:07:39,42.805,6.029,CST-1368DR,4287,4662,11543,01.209,552
2023-05-26T00:10:40,42.805,6.029,CST-1368DR,4287,4662,11543,01.209,552
2023-05-26T00:13:42,42.805,6.029,CST-1368DR,4287,4662,11545,01.208,552
2023-05-26T00:16:43,42.805,6.029,CST-1368DR,4287,4661,11542,01.209,552
2023-05-26T00:19:45,42.805,6.029,CST-1368DR,4287,4663,11546,01.208,552
2023-05-26T00:22:46,42.805,6.029,CST-1368DR,4287,4661,11542,01.209,552
2023-05-26T00:25:48,42.805,6.029,CST-1368DR,4287,4662,11544,01.209,552
2023-05-26T00:28:50,42.805,6.029,CST-1368DR,4287,4663,11545,01.208,552
2023-05-26T00:31:51,42.805,6.029,CST-1368DR,4287,4661,11542,01.209,552
2023-05-26T00:34:53,42.805,6.029,CST-1368DR,4287,4660,11538,01.211,552
2023-05-26T00:37:54,42.805,6.029,CST-1368DR,4287,4662,11543,01.209,552
2023-05-26T00:40:56,42.805,6.029,CST-1368DR,4287,4661,11542,01.209,552
2023-05-26T00:43:58,42.805,6.029,CST-1368DR,4287,4662,11544,01.209,552
2023-05-26T00:46:59,42.805,6.029,CST-1368DR,4287,4663,11547,01.207,552
2023-05-26T00:50:01,42.805,6.029,CST-1368DR,4287,4664,11549,01.207,552
2023-05-26T00:53:02,42.805,6.029,CST-1368DR,4287,4662,11543,01.209,552
2023-05-26T00:56:04,42.805,6.029,CST-1368DR,4287,4660,11539,01.210,552
2023-05-26T00:59:05,42.805,6.029,CST-1368DR,4287,4662,11544,01.209,552
2023-05-26T01:02:07,42.805,6.029,CST-1368DR,4287,4660,11538,01.211,552
2023-05-26T01:05:09,42.805,6.029,CST-1368DR,4287,4655,11527,01.214,552
2023-05-26T01:08:10,42.805,6.029,CST-1368DR,4287,4657,11532,01.213,552
2023-05-26T01:11:12,42.805,6.029,CST-1368DR,4287,4662,11545,01.208,552
2023-05-26T01:14:13,42.805,6.029,CST-1368DR,4287,4663,11547,01.207,552
2023-05-26T01:17:15,42.805,6.029,CST-1368DR,4287,4663,11545,01.208,552
2023-05-26T01:20:16,42.805,6.029,CST-1368DR,4287,4663,11547,01.207,552
2023-05-26T01:23:18,42.805,6.029,CST-1368DR,4287,4663,11547,01.207,552
2023-05-26T01:26:20,42.805,6.029,CST-1368DR,4287,4666,11554,01.205,552
2023-05-26T01:29:21,42.805,6.029,CST-1368DR,4287,4665,11552,01.206,552
2023-05-26T01:32:23,42.805,6.029,CST-1368DR,4287,4662,11544,01.209,552
2023-05-26T01:35:24,42.805,6.029,CST-1368DR,4287,4661,11542,01.209,552
2023-05-26T01:38:26,42.805,6.029,CST-1368DR,4287,4662,11544,01.209,552
2023-05-26T01:41:28,42.805,6.029,CST-1368DR,4287,4662,11545,01.208,552
2023-05-26T01:44:29,42.805,6.029,CST-1368DR,4287,4663,11547,01.207,552
2023-05-26T01:47:31,42.805,6.029,CST-1368DR,4287,4661,11542,01.209,552
2023-05-26T01:50:32,42.805,6.029,CST-1368DR,4287,4662,11544,01.209,552
2023-05-26T01:53:34,42.805,6.029,CST-1368DR,4287,4662,11544,01.209,552
2023-05-26T01:56:35,42.805,6.029,CST-1368DR,4287,4665,11552,01.206,552
2023-05-26T01:59:37,42.805,6.029,CST-1368DR,4287,4662,11543,01.209,552
2023-05-26T02:02:39,42.805,6.029,CST-1368DR,4287,4663,11547,01.207,552
2023-05-26T02:05:40,42.805,6.029,CST-1368DR,4287,4665,11551,01.206,552
2023-05-26T02:08:42,42.805,6.029,CST-1368DR,4287,4664,11548,01.207,552
2023-05-26T02:11:43,42.805,6.029,CST-1368DR,4287,4664,11548,01.207,552
2023-05-26T02:14:45,42.805,6.029,CST-1368DR,4287,4662,11544,01.209,552
2023-05-26T02:17:46,42.805,6.029,CST-1368DR,4287,4665,11550,01.206,552
2023-05-26T02:20:48,42.805,6.029,CST-1368DR,4287,4662,11544,01.209,552
2023-05-26T02:23:50,42.805,6.029,CST-1368DR,4287,4664,11549,01.207,552
2023-05-26T02:26:51,42.805,6.029,CST-1368DR,4287,4663,11545,01.208,552
2023-05-26T02:29:53,42.805,6.029,CST-1368DR,4287,4663,11546,01.208,552
2023-05-26T02:32:54,42.805,6.029,CST-1368DR,4287,4661,11542,01.209,552
2023-05-26T02:35:56,42.805,6.029,CST-1368DR,4287,4663,11545,01.208,552
2023-05-26T02:38:58,42.805,6.029,CST-1368DR,4287,4661,11541,01.210,552
2023-05-26T02:41:59,42.805,6.029,CST-1368DR,4287,4666,11553,01.205,552
2023-05-26T02:45:01,42.805,6.029,CST-1368DR,4287,4661,11542,01.209,552
2023-05-26T02:48:02,42.805,6.029,CST-1368DR,4287,4663,11546,01.208,552
2023-05-26T02:51:04,42.805,6.029,CST-1368DR,4287,4662,11543,01.209,552
2023-05-26T02:54:05,42.805,6.029,CST-1368DR,4287,4664,11548,01.207,552
2023-05-26T02:57:07,42.805,6.029,CST-1368DR,4287,4659,11537,01.211,552
2023-05-26T03:00:09,42.805,6.029,CST-1368DR,4287,4662,11545,01.208,552
2023-05-26T03:03:10,42.805,6.029,CST-1368DR,4287,4662,11544,01.209,552
2023-05-26T03:06:12,42.805,6.029,CST-1368DR,4287,4663,11547,01.207,552
2023-05-26T03:09:13,42.805,6.029,CST-1368DR,4287,4663,11545,01.208,552
2023-05-26T03:12:15,42.805,6.029,CST-1368DR,4287,4662,11544,01.209,552
2023-05-26T03:15:16,42.805,6.029,CST-1368DR,4287,4662,11543,01.209,552
2023-05-26T03:18:18,42.805,6.029,CST-1368DR,4287,4664,11550,01.206,552
2023-05-26T03:21:20,42.805,6.029,CST-1368DR,4287,4662,11545,01.208,552
2023-05-26T03:24:21,42.805,6.029,CST-1368DR,4287,4662,11545,01.208,552
2023-05-26T03:27:23,42.805,6.029,CST-1368DR,4287,4663,11545,01.208,552
2023-05-26T03:30:24,42.805,6.029,CST-1368DR,4287,4662,11543,01.209,552
2023-05-26T03:33:26,42.805,6.029,CST-1368DR,4287,4660,11538,01.211,552
2023-05-26T03:36:27,42.805,6.029,CST-1368DR,4287,4662,11544,01.209,552
2023-05-26T03:39:29,42.805,6.029,CST-1368DR,4287,4661,11540,01.210,552
2023-05-26T03:42:31,42.805,6.029,CST-1368DR,4287,4663,11546,01.208,552
2023-05-26T03:45:32,42.805,6.029,CST-1368DR,4287,4662,11543,01.209,552
2023-05-26T03:48:34,42.805,6.029,CST-1368DR,4287,4662,11543,01.209,552
2023-05-26T03:51:35,42.805,6.029,CST-1368DR,4287,4661,11542,01.209,552
2023-05-26T03:54:37,42.805,6.029,CST-1368DR,4287,4662,11543,01.209,552
2023-05-26T03:57:39,42.805,6.029,CST-1368DR,4287,4659,11535,01.212,552
2023-05-26T04:00:40,42.805,6.029,CST-1368DR,4287,4662,11544,01.209,552
2023-05-26T04:03:42,42.805,6.029,CST-1368DR,4287,4662,11545,01.208,552
2023-05-26T04:06:43,42.805,6.029,CST-1368DR,4287,4660,11539,01.210,552
2023-05-26T04:09:45,42.805,6.029,CST-1368DR,4287,4661,11540,01.210,552
2023-05-26T04:12:46,42.805,6.029,CST-1368DR,4287,4661,11542,01.209,552
2023-05-26T04:15:48,42.805,6.029,CST-1368DR,4287,4661,11541,01.210,552
2023-05-26T04:18:50,42.805,6.029,CST-1368DR,4287,4658,11533,01.212,552
2023-05-26T04:21:51,42.805,6.029,CST-1368DR,4287,4657,11530,01.213,552
2023-05-26T04:24:53,42.805,6.029,CST-1368DR,4287,4661,11541,01.210,552
2023-05-26T04:27:54,42.805,6.029,CST-1368DR,4287,4657,11530,01.213,552
2023-05-26T04:30:56,42.805,6.029,CST-1368DR,4287,4660,11538,01.211,552
2023-05-26T04:33:57,42.805,6.029,CST-1368DR,4287,4659,11537,01.211,552
2023-05-26T04:36:59,42.805,6.029,CST-1368DR,4287,4657,11532,01.213,552
2023-05-26T04:40:01,42.805,6.029,CST-1368DR,4287,4665,11551,01.206,552
2023-05-26T04:43:02,42.805,6.029,CST-1368DR,4287,4659,11537,01.211,552
2023-05-26T04:46:04,42.805,6.029,CST-1368DR,4287,4661,11542,01.209,552
2023-05-26T04:49:05,42.805,6.029,CST-1368DR,4287,4658,11535,01.212,552
2023-05-26T04:52:07,42.805,6.029,CST-1368DR,4287,4659,11536,01.211,552
2023-05-26T04:55:09,42.805,6.029,CST-1368DR,4287,4660,11539,01.210,552
2023-05-26T04:58:10,42.805,6.029,CST-1368DR,4287,4658,11535,01.212,552
2023-05-26T05:01:12,42.805,6.029,CST-1368DR,4287,4658,11534,01.212,552
2023-05-26T05:04:13,42.805,6.029,CST-1368DR,4287,4659,11535,01.212,552
2023-05-26T05:07:15,42.805,6.029,CST-1368DR,4287,4656,11529,01.214,552
2023-05-26T05:10:16,42.805,6.029,CST-1368DR,4287,4659,11535,01.212,552
2023-05-26T05:13:18,42.805,6.029,CST-1368DR,4287,4658,11534,01.212,552
2023-05-26T05:16:20,42.805,6.029,CST-1368DR,4287,4658,11534,01.212,552
2023-05-26T05:19:21,42.805,6.029,CST-1368DR,4287,4656,11528,01.214,552
2023-05-26T05:22:23,42.805,6.029,CST-1368DR,4287,4655,11527,01.214,552
2023-05-26T05:25:24,42.805,6.029,CST-1368DR,4287,4656,11530,01.213,552
2023-05-26T05:28:26,42.805,6.029,CST-1368DR,4287,4654,11524,01.215,552
2023-05-26T05:31:27,42.805,6.029,CST-1368DR,4287,4656,11529,01.214,552
2023-05-26T05:34:29,42.805,6.029,CST-1368DR,4287,4656,11529,01.214,552
2023-05-26T05:37:31,42.805,6.029,CST-1368DR,4287,4656,11528,01.214,552
2023-05-26T05:40:32,42.805,6.029,CST-1368DR,4287,4654,11525,01.215,552
2023-05-26T05:43:34,42.805,6.029,CST-1368DR,4287,4657,11530,01.213,552
2023-05-26T05:46:35,42.805,6.029,CST-1368DR,4287,4658,11534,01.212,552
2023-05-26T05:49:37,42.805,6.029,CST-1368DR,4287,4658,11534,01.212,552
2023-05-26T05:52:38,42.805,6.029,CST-1368DR,4287,4656,11529,01.214,552
2023-05-26T05:55:40,42.805,6.029,CST-1368DR,4287,4657,11532,01.213,552
2023-05-26T05:58:42,42.805,6.029,CST-1368DR,4287,4659,11535,01.212,552
2023-05-26T06:01:43,42.805,6.029,CST-1368DR,4287,4658,11534,01.212,552
2023-05-26T06:04:45,42.805,6.029,CST-1368DR,4287,4656,11530,01.213,552
2023-05-26T06:07:46,42.805,6.029,CST-1368DR,4287,4658,11533,01.212,552
2023-05-26T06:10:48,42.805,6.029,CST-1368DR,4287,4659,11536,01.211,552
2023-05-26T06:13:50,42.805,6.029,CST-1368DR,4287,4653,11522,01.216,552
2023-05-26T06:16:51,42.805,6.029,CST-1368DR,4287,4656,11529,01.214,552
2023-05-26T06:19:53,42.805,6.029,CST-1368DR,4287,4658,11533,01.212,552
2023-05-26T06:22:54,42.805,6.029,CST-1368DR,4287,4655,11527,01.214,552
2023-05-26T06:25:56,42.805,6.029,CST-1368DR,4287,4654,11525,01.215,552
2023-05-26T06:28:57,42.805,6.029,CST-1368DR,4287,4655,11526,01.215,552
2023-05-26T06:32:02,42.805,6.029,CST-1368DR,4287,4656,11530,01.213,552
2023-05-26T06:35:03,42.805,6.029,CST-1368DR,4287,4656,11528,01.214,552
2023-05-26T06:38:05,42.805,6.029,CST-1368DR,4287,4657,11532,01.213,552
2023-05-26T06:41:06,42.805,6.029,CST-1368DR,4287,4653,11521,01.216,552
2023-05-26T06:44:08,42.805,6.029,CST-1368DR,4287,4653,11521,01.216,552
2023-05-26T06:47:09,42.805,6.029,CST-1368DR,4287,4655,11526,01.215,552
2023-05-26T06:50:11,42.805,6.029,CST-1368DR,4287,4654,11525,01.215,552
2023-05-26T06:53:13,42.805,6.029,CST-1368DR,4287,4657,11532,01.213,552
2023-05-26T06:56:14,42.805,6.029,CST-1368DR,4287,4657,11530,01.213,552
2023-05-26T06:59:16,42.805,6.029,CST-1368DR,4287,4655,11526,01.215,552
2023-05-26T07:02:17,42.805,6.029,CST-1368DR,4287,4656,11528,01.214,552
2023-05-26T07:05:19,42.805,6.029,CST-1368DR,4287,4655,11526,01.215,552
2023-05-26T07:08:21,42.805,6.029,CST-1368DR,4287,4656,11528,01.214,552
2023-05-26T07:11:22,42.805,6.029,CST-1368DR,4286,4656,11532,01.213,552
2023-05-26T07:14:24,42.805,6.029,CST-1368DR,4287,4657,11530,01.213,552
2023-05-26T07:17:25,42.805,6.029,CST-1368DR,4286,4658,11537,01.211,552
2023-05-26T07:20:27,42.805,6.029,CST-1368DR,4287,4657,11532,01.213,552
2023-05-26T07:23:28,42.805,6.029,CST-1368DR,4287,4657,11532,01.213,552
2023-05-26T07:26:30,42.805,6.029,CST-1368DR,4287,4657,11532,01.213,552
2023-05-26T07:29:32,42.805,6.029,CST-1368DR,4287,4658,11534,01.212,552
2023-05-26T07:32:33,42.805,6.029,CST-1368DR,4286,4656,11532,01.213,552
2023-05-26T07:35:35,42.805,6.029,CST-1368DR,4287,4658,11535,01.212,552
2023-05-26T07:38:36,42.805,6.029,CST-1368DR,4287,4657,11532,01.213,552
2023-05-26T07:41:38,42.805,6.029,CST-1368DR,4287,4656,11529,01.214,552
2023-05-26T07:44:39,42.805,6.029,CST-1368DR,4287,4658,11533,01.212,552
2023-05-26T07:47:41,42.805,6.029,CST-1368DR,4287,4658,11534,01.212,552
2023-05-26T07:50:43,42.805,6.029,CST-1368DR,4287,4658,11534,01.212,552
2023-05-26T07:53:44,42.805,6.029,CST-1368DR,4287,4658,11534,01.212,552
2023-05-26T07:56:46,42.805,6.029,CST-1368DR,4287,4657,11532,01.213,552
2023-05-26T07:59:47,42.805,6.029,CST-1368DR,4287,4656,11529,01.214,552
2023-05-26T08:02:49,42.805,6.029,CST-1368DR,4287,4661,11540,01.210,552
2023-05-26T08:05:51,42.805,6.029,CST-1368DR,4287,4661,11540,01.210,552
2023-05-26T08:08:52,42.805,6.029,CST-1368DR,4287,4659,11535,01.212,552
2023-05-26T08:11:54,42.805,6.029,CST-1368DR,4287,4659,11536,01.211,552
2023-05-26T08:14:55,42.805,6.029,CST-1368DR,4287,4653,11522,01.216,552
2023-05-26T08:17:57,42.805,6.029,CST-1368DR,4287,4658,11535,01.212,552
2023-05-26T08:20:58,42.805,6.029,CST-1368DR,4287,4662,11544,01.209,552
2023-05-26T08:24:00,42.805,6.029,CST-1368DR,4287,4661,11540,01.210,552
2023-05-26T08:27:02,42.805,6.029,CST-1368DR,4287,4661,11540,01.210,552
2023-05-26T08:30:03,42.805,6.029,CST-1368DR,4287,4661,11542,01.209,552
2023-05-26T08:33:05,42.805,6.029,CST-1368DR,4287,4663,11546,01.208,552
2023-05-26T08:36:06,42.805,6.029,CST-1368DR,4287,4661,11542,01.209,552
2023-05-26T08:39:08,42.805,6.029,CST-1368DR,4287,4661,11540,01.210,552
2023-05-26T08:42:09,42.805,6.029,CST-1368DR,4286,4660,11541,01.210,552
2023-05-26T08:45:11,42.805,6.029,CST-1368DR,4286,4663,11550,01.206,552
2023-05-26T08:48:13,42.805,6.029,CST-1368DR,4287,4663,11545,01.208,552
2023-05-26T08:51:14,42.805,6.029,CST-1368DR,4287,4662,11545,01.208,552
2023-05-26T08:54:16,42.805,6.029,CST-1368DR,4287,4661,11542,01.209,552
2023-05-26T08:57:17,42.805,6.029,CST-1368DR,4287,4662,11544,01.209,552
2023-05-26T09:00:19,42.805,6.029,CST-1368DR,4286,4661,11544,01.209,552
2023-05-26T09:03:21,42.805,6.029,CST-1368DR,4286,4660,11540,01.210,552
2023-05-26T09:06:22,42.805,6.029,CST-1368DR,4286,4662,11547,01.207,552
2023-05-26T09:09:24,42.805,6.029,CST-1368DR,4286,4660,11541,01.210,552
2023-05-26T09:12:25,42.805,6.029,CST-1368DR,4287,4661,11541,01.210,552
2023-05-26T09:15:27,42.805,6.029,CST-1368DR,4286,4659,11540,01.210,552
2023-05-26T09:18:28,42.805,6.029,CST-1368DR,4287,4663,11545,01.208,552
2023-05-26T09:21:30,42.805,6.029,CST-1368DR,4286,4660,11542,01.209,552
2023-05-26T09:24:32,42.805,6.029,CST-1368DR,4286,4658,11537,01.211,552
2023-05-26T09:27:33,42.805,6.029,CST-1368DR,4287,4661,11540,01.210,552
2023-05-26T09:30:35,42.805,6.029,CST-1368DR,4286,4660,11541,01.210,552
2023-05-26T09:33:36,42.805,6.029,CST-1368DR,4286,4660,11540,01.210,552
2023-05-26T09:36:38,42.805,6.029,CST-1368DR,4286,4658,11537,01.211,552
2023-05-26T09:39:39,42.805,6.029,CST-1368DR,4286,4660,11540,01.210,552
2023-05-26T09:42:41,42.805,6.029,CST-1368DR,4286,4665,11554,01.205,552
2023-05-26T09:45:43,42.805,6.029,CST-1368DR,4286,4662,11547,01.207,552
2023-05-26T09:48:44,42.805,6.029,CST-1368DR,4286,4661,11543,01.209,552
2023-05-26T09:51:46,42.805,6.029,CST-1368DR,4286,4661,11544,01.209,552
2023-05-26T09:54:47,42.805,6.029,CST-1368DR,4286,4659,11540,01.210,552
2023-05-26T09:57:49,42.805,6.029,CST-1368DR,4286,4660,11540,01.210,552
2023-05-26T10:00:51,42.805,6.029,CST-1368DR,4286,4662,11545,01.208,552
2023-05-26T10:03:52,42.805,6.029,CST-1368DR,4286,4658,11537,01.211,552
2023-05-26T10:06:54,42.805,6.029,CST-1368DR,4286,4658,11537,01.211,552
2023-05-26T10:09:55,42.805,6.029,CST-1368DR,4286,4656,11531,01.213,552
2023-05-26T10:12:57,42.805,6.029,CST-1368DR,4286,4660,11540,01.210,552
2023-05-26T10:15:58,42.805,6.029,CST-1368DR,4287,4659,11537,01.211,552
2023-05-26T10:19:00,42.805,6.029,CST-1368DR,4286,4660,11540,01.210,552
2023-05-26T10:22:02,42.805,6.029,CST-1368DR,4286,4660,11540,01.210,552
2023-05-26T10:25:03,42.805,6.029,CST-1368DR,4286,4659,11540,01.210,552
2023-05-26T10:28:05,42.805,6.029,CST-1368DR,4286,4661,11543,01.209,552
2023-05-26T10:31:07,42.805,6.029,CST-1368DR,4286,4660,11542,01.209,552
2023-05-26T10:34:09,42.805,6.029,CST-1368DR,4286,4660,11540,01.210,552
2023-05-26T10:37:10,42.805,6.029,CST-1368DR,4286,4656,11532,01.213,552
2023-05-26T10:40:12,42.805,6.029,CST-1368DR,4286,4659,11539,01.210,552
2023-05-26T10:43:13,42.805,6.029,CST-1368DR,4286,4660,11540,01.210,552
2023-05-26T10:46:15,42.805,6.029,CST-1368DR,4286,4659,11540,01.210,552
2023-05-26T10:49:16,42.805,6.029,CST-1368DR,4286,4658,11535,01.212,552
2023-05-26T10:52:18,42.805,6.029,CST-1368DR,4286,4656,11532,01.213,552
2023-05-26T10:55:20,42.805,6.029,CST-1368DR,4286,4656,11531,01.213,552
2023-05-26T10:58:21,42.805,6.029,CST-1368DR,4286,4660,11541,01.210,552
2023-05-26T11:01:23,42.805,6.029,CST-1368DR,4286,4659,11539,01.210,552
2023-05-26T11:04:24,42.805,6.029,CST-1368DR,4286,4659,11539,01.210,552
2023-05-26T11:07:26,42.805,6.029,CST-1368DR,4286,4658,11537,01.211,552
2023-05-26T11:10:28,42.805,6.029,CST-1368DR,4286,4658,11535,01.212,552
2023-05-26T11:13:29,42.805,6.029,CST-1368DR,4286,4658,11535,01.212,552
2023-05-26T11:16:31,42.805,6.029,CST-1368DR,4286,4660,11540,01.210,552
2023-05-26T11:19:32,42.805,6.029,CST-1368DR,4286,4661,11544,01.209,552
2023-05-26T11:22:34,42.805,6.029,CST-1368DR,4286,4660,11541,01.210,552
2023-05-26T11:25:35,42.805,6.029,CST-1368DR,4286,4660,11540,01.210,552
2023-05-26T11:28:37,42.805,6.029,CST-1368DR,4286,4661,11544,01.209,552
2023-05-26T11:31:39,42.805,6.029,CST-1368DR,4286,4661,11543,01.209,552
2023-05-26T11:34:40,42.805,6.029,CST-1368DR,4286,4661,11544,01.209,552
2023-05-26T11:37:42,42.805,6.029,CST-1368DR,4286,4663,11549,01.207,552
2023-05-26T11:40:43,42.805,6.029,CST-1368DR,4286,4659,11539,01.210,552
2023-05-26T11:43:45,42.805,6.029,CST-1368DR,4286,4662,11547,01.207,552
2023-05-26T11:46:46,42.805,6.029,CST-1368DR,4286,4662,11546,01.208,552
2023-05-26T11:49:48,42.805,6.029,CST-1368DR,4286,4662,11547,01.207,552
2023-05-26T11:52:50,42.805,6.029,CST-1368DR,4286,4662,11546,01.208,552
2023-05-26T11:55:51,42.805,6.029,CST-1368DR,4286,4661,11544,01.209,552
2023-05-26T11:58:53,42.805,6.029,CST-1368DR,4286,4662,11545,01.208,552
2023-05-26T12:01:54,42.805,6.029,CST-1368DR,4286,4661,11545,01.208,552
2023-05-26T12:04:56,42.805,6.029,CST-1368DR,4286,4659,11539,01.210,552
2023-05-26T12:07:58,42.805,6.029,CST-1368DR,4286,4661,11544,01.209,552
2023-05-26T12:10:59,42.805,6.029,CST-1368DR,4286,4660,11542,01.209,552
2023-05-26T12:14:01,42.805,6.029,CST-1368DR,4286,4660,11542,01.209,552
2023-05-26T12:17:02,42.805,6.029,CST-1368DR,4286,4661,11543,01.209,552
2023-05-26T12:20:04,42.805,6.029,CST-1368DR,4286,4659,11538,01.211,552
2023-05-26T12:23:05,42.805,6.029,CST-1368DR,4286,4660,11541,01.210,552
2023-05-26T12:26:07,42.805,6.029,CST-1368DR,4286,4660,11541,01.210,552
2023-05-26T12:29:09,42.805,6.029,CST-1368DR,4286,4659,11539,01.210,552
2023-05-26T12:32:10,42.805,6.029,CST-1368DR,4286,4659,11539,01.210,552
2023-05-26T12:35:12,42.805,6.029,CST-1368DR,4286,4666,11555,01.205,552
2023-05-26T12:38:13,42.805,6.029,CST-1368DR,4286,4657,11535,01.212,552
2023-05-26T12:41:15,42.805,6.029,CST-1368DR,4286,4658,11536,01.211,552
2023-05-26T12:44:16,42.805,6.029,CST-1368DR,4286,4658,11537,01.211,552
2023-05-26T12:47:18,42.805,6.029,CST-1368DR,4286,4658,11536,01.211,552
2023-05-26T12:50:20,42.805,6.029,CST-1368DR,4286,4656,11532,01.213,552
2023-05-26T12:53:21,42.805,6.029,CST-1368DR,4286,4658,11535,01.212,552
2023-05-26T12:56:23,42.805,6.029,CST-1368DR,4286,4658,11537,01.211,552
2023-05-26T12:59:24,42.805,6.029,CST-1368DR,4286,4657,11534,01.212,552
2023-05-26T13:02:26,42.805,6.029,CST-1368DR,4286,4659,11539,01.210,552
2023-05-26T13:05:28,42.805,6.029,CST-1368DR,4286,4658,11536,01.211,552
2023-05-26T13:08:29,42.805,6.029,CST-1368DR,4286,4658,11537,01.211,552
2023-05-26T13:11:31,42.805,6.029,CST-1368DR,4287,4659,11537,01.211,552
2023-05-26T13:14:32,42.805,6.029,CST-1368DR,4286,4662,11547,01.207,552
2023-05-26T13:17:34,42.805,6.029,CST-1368DR,4286,4662,11545,01.208,552
2023-05-26T13:20:35,42.805,6.029,CST-1368DR,4286,4661,11544,01.209,552
2023-05-26T13:23:37,42.805,6.029,CST-1368DR,4286,4661,11544,01.209,552
2023-05-26T13:26:39,42.805,6.029,CST-1368DR,4286,4661,11544,01.209,552
2023-05-26T13:29:40,42.805,6.029,CST-1368DR,4286,4663,11548,01.207,552
2023-05-26T13:32:42,42.805,6.029,CST-1368DR,4286,4662,11547,01.207,552
2023-05-26T13:35:43,42.805,6.029,CST-1368DR,4286,4661,11544,01.209,552
2023-05-26T13:38:45,42.805,6.029,CST-1368DR,4286,4662,11545,01.208,552
2023-05-26T13:41:47,42.805,6.029,CST-1368DR,4286,4663,11549,01.207,552
2023-05-26T13:44:48,42.805,6.029,CST-1368DR,4286,4663,11548,01.207,552
2023-05-26T13:47:50,42.805,6.029,CST-1368DR,4286,4662,11546,01.208,552
2023-05-26T13:50:51,42.805,6.029,CST-1368DR,4286,4662,11545,01.208,552
2023-05-26T13:53:53,42.805,6.029,CST-1368DR,4286,4655,11529,01.214,552
2023-05-26T13:56:54,42.805,6.029,CST-1368DR,4286,4661,11544,01.209,552
2023-05-26T13:59:56,42.805,6.029,CST-1368DR,4286,4658,11537,01.211,552
2023-05-26T14:02:58,42.805,6.029,CST-1368DR,4286,4660,11540,01.210,552
2023-05-26T14:05:59,42.805,6.029,CST-1368DR,4286,4660,11542,01.209,552
2023-05-26T14:09:01,42.805,6.029,CST-1368DR,4286,4660,11540,01.210,552
2023-05-26T14:12:02,42.805,6.029,CST-1368DR,4286,4660,11541,01.210,552
2023-05-26T14:15:04,42.805,6.029,CST-1368DR,4286,4660,11542,01.209,552
2023-05-26T14:18:05,42.805,6.029,CST-1368DR,4286,4659,11539,01.210,552
2023-05-26T14:21:07,42.805,6.029,CST-1368DR,4286,4660,11540,01.210,552
2023-05-26T14:24:09,42.805,6.029,CST-1368DR,4286,4659,11538,01.211,552
2023-05-26T14:27:10,42.805,6.029,CST-1368DR,4286,4654,11527,01.214,552
2023-05-26T14:30:13,42.805,6.029,CST-1368DR,4286,4658,11537,01.211,552
2023-05-26T14:33:15,42.805,6.029,CST-1368DR,4286,4658,11537,01.211,552
2023-05-26T14:36:17,42.805,6.029,CST-1368DR,4286,4657,11534,01.212,552
2023-05-26T14:39:18,42.805,6.029,CST-1368DR,4286,4660,11541,01.210,552
2023-05-26T14:42:20,42.805,6.029,CST-1368DR,4286,4662,11545,01.208,552
2023-05-26T14:45:21,42.805,6.029,CST-1368DR,4286,4662,11545,01.208,552
2023-05-26T14:48:23,42.805,6.029,CST-1368DR,4286,4660,11540,01.210,551
2023-05-26T14:51:25,42.805,6.029,CST-1368DR,4286,4661,11543,01.209,552
2023-05-26T14:54:26,42.805,6.029,CST-1368DR,4286,4662,11547,01.207,552
2023-05-26T14:57:28,42.805,6.029,CST-1368DR,4286,4663,11548,01.207,552
2023-05-26T15:00:29,42.805,6.029,CST-1368DR,4286,4661,11543,01.209,552
2023-05-26T15:03:31,42.805,6.029,CST-1368DR,4286,4660,11540,01.210,552
2023-05-26T15:06:32,42.805,6.029,CST-1368DR,4286,4660,11542,01.209,552
2023-05-26T15:09:34,42.805,6.029,CST-1368DR,4286,4662,11545,01.208,552
2023-05-26T15:12:36,42.805,6.029,CST-1368DR,4286,4661,11545,01.208,552
2023-05-26T15:15:37,42.805,6.029,CST-1368DR,4286,4661,11544,01.209,552
2023-05-26T15:18:39,42.805,6.029,CST-1368DR,4286,4661,11545,01.208,552
2023-05-26T15:21:40,42.805,6.029,CST-1368DR,4286,4659,11539,01.210,552
2023-05-26T15:24:42,42.805,6.029,CST-1368DR,4286,4659,11538,01.211,552
2023-05-26T15:27:43,42.805,6.029,CST-1368DR,4286,4658,11537,01.211,552
2023-05-26T15:30:45,42.805,6.029,CST-1368DR,4286,4660,11540,01.210,552
2023-05-26T15:33:47,42.805,6.029,CST-1368DR,4286,4659,11540,01.210,552
2023-05-26T15:36:48,42.805,6.029,CST-1368DR,4286,4659,11538,01.211,552
2023-05-26T15:39:50,42.805,6.029,CST-1368DR,4286,4658,11537,01.211,552
2023-05-26T15:42:51,42.805,6.029,CST-1368DR,4286,4656,11532,01.213,552
2023-05-26T15:45:53,42.805,6.029,CST-1368DR,4286,4655,11529,01.214,552
2023-05-26T15:48:55,42.805,6.029,CST-1368DR,4286,4661,11543,01.209,552
2023-05-26T15:51:56,42.805,6.029,CST-1368DR,4286,4654,11526,01.215,552
2023-05-26T15:54:58,42.805,6.029,CST-1368DR,4286,4656,11532,01.213,552
2023-05-26T15:57:59,42.805,6.029,CST-1368DR,4286,4655,11529,01.214,552
2023-05-26T16:01:01,42.805,6.029,CST-1368DR,4286,4655,11530,01.213,552
2023-05-26T16:04:02,42.805,6.029,CST-1368DR,4286,4654,11527,01.214,552
2023-05-26T16:07:04,42.805,6.029,CST-1368DR,4287,4697,11630,01.179,552
2023-05-26T16:10:06,42.805,6.029,CST-1368DR,4287,4697,11630,01.179,552
2023-05-26T16:13:07,42.805,6.029,CST-1368DR,4287,4698,11633,01.178,552
2023-05-26T16:16:09,42.805,6.029,CST-1368DR,4287,4697,11629,01.179,552
2023-05-26T16:19:10,42.805,6.029,CST-1368DR,4286,4695,11627,01.180,552
2023-05-26T16:22:12,42.805,6.029,CST-1368DR,4287,4699,11634,01.177,552
2023-05-26T16:25:13,42.805,6.029,CST-1368DR,4286,4698,11636,01.177,552
2023-05-26T16:28:15,42.805,6.029,CST-1368DR,4286,4697,11633,01.178,552
2023-05-26T16:31:17,42.805,6.029,CST-1368DR,4286,4696,11631,01.178,552
2023-05-26T16:34:18,42.805,6.029,CST-1368DR,4287,4698,11633,01.178,552
2023-05-26T16:37:20,42.805,6.029,CST-1368DR,4287,4697,11631,01.178,552